Location: Carrer del Canonge
(41.4901°N, 2.2931°E)
Time: 17:25:33
(UTC+00:00)

SPOT 3 Rocket - Pass Details

Date: 22 June 2021
Orbit: 779 x 794 km, 98.7° (Epoch: 01 August)

Event Time Altitude Azimuth Distance (km) Brightness Sun altitude
Exits shadow 20:07:24 - 147° (SSE) 2,618 5.6 -6.7°
Reaches altitude 10° 20:08:08 10° 145° (SE) 2,337 5.4 -6.8°
Maximum altitude 20:13:06 51° 71° (ENE) 990 3.9 -7.5°
Drops below altitude 10° 20:18:08 10° 357° (N) 2,362 6.7 -8.2°
Sets 20:20:31 0° 352° (N) 3,297 7.6 -8.6°
